Regional Weather Roundup
Issued by NWS Little Rock, AR

Home | Current Version | Previous Version | Text Only | Print | Product List | Glossary Off
Versions: 1 2 3 4 5 6 7 8 9 10 11 12 13 14 15 16 17 18 19 20 21 22 23 24 25 26 27 28 29 30 31 32 33 34 35 36 37 38 39 40 41 42 43 44 45 46 47 48 49 50

000
ASUS44 KLZK 182305
RWRLZK

WEATHER ROUNDUP FOR ARKANSAS
NATIONAL WEATHER SERVICE LITTLE ROCK AR
500 PM CST THU DEC 18 2014

NOTE: "FAIR" INDICATES FEW OR NO CLOUDS BELOW 12,000 FEET WITH NO
SIGNIFICANT WEATHER AND/OR OBSTRUCTIONS TO VISIBILITY.

ARZ001-003-010-029-190000-
NORTHWEST ARKANSAS

CITY           SKY/WX    TMP DP  RH WIND       PRES   REMARKS
FAYETTEVILLE   CLOUDY    40  38  93 NW3       30.16R
FORT SMITH     CLOUDY    41  37  86 E5        30.18R
HARRISON       CLOUDY    39  38  96 CALM      30.15R
BENTONVILLE    CLOUDY    39  36  87 NW3       30.16R
ROGERS         CLOUDY    39  37  92 CALM      30.16R FOG
SILOAM SPGS    CLOUDY    39  34  81 CALM      30.17R
HIGHFILL       CLOUDY    40  38  93 NW3       30.15R
SPRINGDALE     CLOUDY    39  37  93 W5        30.17R FOG
$$

ARZ004-005-016-190000-
NORTH CENTRAL ARKANSAS

CITY           SKY/WX    TMP DP  RH WIND       PRES   REMARKS
BATESVILLE     CLOUDY    39  36  87 CALM      30.20R
FLIPPIN        CLOUDY    39  34  81 E3        30.17R
MTN HOME       CLOUDY    38  35  89 CALM      30.16S
$$

ARZ040-041-190000-
WEST CENTRAL ARKANSAS

CITY           SKY/WX    TMP DP  RH WIND       PRES   REMARKS
MENA           CLOUDY    46  45  93 E3        30.13S
MOUNT IDA      CLOUDY    43  41  93 CALM      30.13R
$$

ARZ009-017-025-026-028-190000-
NORTHEAST ARKANSAS

CITY           SKY/WX    TMP DP  RH WIND       PRES   REMARKS
CORNING        CLOUDY    39  36  87 NE7       30.22R
JONESBORO      CLOUDY    41  37  86 E7        30.20R
NEWPORT        CLOUDY    41  38  89 NE6       30.21F
WALNUT RIDGE   CLOUDY    41  34  75 NE5       30.21R
BLYTHEVILLE    CLOUDY    42  36  79 E5        30.21R
$$

ARZ022-023-033-042-044-190000-
CENTRAL ARKANSAS

CITY           SKY/WX    TMP DP  RH WIND       PRES   REMARKS
LITTLE ROCK    CLOUDY    43  38  82 NE5       30.19S FOG
N LITTLE ROCK  CLOUDY    40  40 100 NE5       30.19S
JACKSONVILLE   CLOUDY    41  40  95 NE3       30.18F
SEARCY         CLOUDY    41  39  93 E5        30.21S FOG
HOT SPRINGS    CLOUDY    43  40  89 E5        30.17R
RUSSELLVILLE   CLOUDY    41  38  89 CALM      30.17S
CLINTON        CLOUDY    39  37  93 CALM      30.19F FOG
$$

ARZ036-190000-
EAST ARKANSAS

CITY           SKY/WX    TMP DP  RH WIND       PRES   REMARKS
WEST MEMPHIS   CLOUDY    44  39  82 N3        30.19R
$$

ARZ050-053-066-070-073-190000-
SOUTHWEST ARKANSAS

CITY           SKY/WX    TMP DP  RH WIND       PRES   REMARKS
ARKADELPHIA    CLOUDY    44  44 100 NE6       30.18R
CAMDEN         CLOUDY    46  41  81 MISG      30.16R
TEXARKANA      CLOUDY    46  43  89 NE3       30.14R
EL DORADO      CLOUDY    50  46  86 N6        30.15R
DE QUEEN       CLOUDY    46  43  89 NE3       30.14R
$$

ARZ056-057-069-190000-
SOUTHEAST ARKANSAS

CITY           SKY/WX    TMP DP  RH WIND       PRES   REMARKS
PINE BLUFF     CLOUDY    44  40  85 N7        30.18R
STUTTGART      CLOUDY    43  37  81 NE8       30.18F
MONTICELLO     CLOUDY    49  44  83 NE5       30.16R

$$




USA.gov is the U.S. government's official web portal to all federal, state and local government web resources and services.